• In Belgium
  • List of Countries
  • For 7 days
  • Water Temperature
  • Satellite Maps
  • Weather Map
  • Weather Widgets
  • user-avatar
    Login

    Hourly Weather Crete

    Today, 25 February, Sunday

    Time Temperature Precipitation Wind Pressure Humidity
    00:00 +6°C° 0 mm 7 mps 704 mmHg 73%
    01:00 +6°C° 0 mm 7 mps 704 mmHg 74%
    02:00 +6°C° 0 mm 8 mps 704 mmHg 74%
    03:00 +6°C° 0 mm 7 mps 704 mmHg 75%
    04:00 +6°C° 0 mm 7 mps 704 mmHg 75%
    05:00 +7°C° 0 mm 6 mps 704 mmHg 76%
    06:00 +7°C° 0 mm 6 mps 704 mmHg 75%
    07:00 +7°C° 0 mm 5 mps 704 mmHg 75%
    08:00 +7°C° 0 mm 5 mps 704 mmHg 74%
    09:00 +8°C° 0 mm 4 mps 705 mmHg 68%
    10:00 +10°C° 0 mm 4 mps 705 mmHg 62%
    11:00 +11°C° 0 mm 3 mps 705 mmHg 56%
    12:00 +11°C° 0 mm 3 mps 705 mmHg 56%
    13:00 +12°C° 0 mm 3 mps 705 mmHg 56%
    14:00 +12°C° 0 mm 3 mps 704 mmHg 56%
    15:00 +11°C° 0 mm 3 mps 704 mmHg 60%
    16:00 +11°C° 0 mm 3 mps 704 mmHg 63%
    17:00 +11°C° 0 mm 3 mps 704 mmHg 67%
    18:00 +10°C° 0.2 mm 3 mps 703 mmHg 73%
    19:00 +9°C° 0.2 mm 3 mps 703 mmHg 79%
    20:00 +8°C° 0.2 mm 3 mps 703 mmHg 85%
    21:00 +8°C° 0.3 mm 3 mps 703 mmHg 87%
    22:00 +8°C° 0.3 mm 3 mps 702 mmHg 88%
    23:00 +8°C° 0.3 mm 3 mps 702 mmHg 90%

    Tomorrow, 26 February, Monday

    Time Temperature Precipitation Wind Pressure Humidity
    00:00 +7°C° 0.1 mm 3 mps 702 mmHg 90%
    01:00 +6°C° 0.1 mm 4 mps 701 mmHg 90%
    02:00 +5°C° 0.1 mm 4 mps 701 mmHg 90%
    03:00 +6°C° 0.1 mm 4 mps 701 mmHg 90%
    04:00 +6°C° 0.1 mm 5 mps 700 mmHg 89%
    05:00 +7°C° 0.1 mm 5 mps 699 mmHg 89%
    06:00 +7°C° 0.1 mm 5 mps 699 mmHg 87%
    07:00 +8°C° 0.1 mm 6 mps 699 mmHg 85%
    08:00 +8°C° 0.1 mm 6 mps 698 mmHg 83%
    09:00 +9°C° 0.2 mm 7 mps 699 mmHg 78%
    10:00 +10°C° 0.2 mm 8 mps 699 mmHg 72%
    11:00 +9°C° 0.2 mm 10 mps 699 mmHg 67%
    12:00 +11°C° 0 mm 10 mps 699 mmHg 64%
    13:00 +11°C° 0 mm 10 mps 699 mmHg 62%
    14:00 +11°C° 0 mm 10 mps 699 mmHg 59%
    15:00 +11°C° 0 mm 10 mps 699 mmHg 60%
    16:00 +9°C° 0 mm 10 mps 700 mmHg 61%
    17:00 +9°C° 0 mm 10 mps 700 mmHg 62%
    18:00 +8°C° 0 mm 9 mps 700 mmHg 65%
    19:00 +7°C° 0 mm 8 mps 701 mmHg 68%
    20:00 +8°C° 0 mm 7 mps 701 mmHg 71%
    21:00 +8°C° 0 mm 7 mps 701 mmHg 74%
    22:00 +8°C° 0 mm 7 mps 702 mmHg 76%
    23:00 +8°C° 0 mm 7 mps 702 mmHg 79%

    Day after tomorrow, 27 February, Tuesday

    Time Temperature Precipitation Wind Pressure Humidity
    00:00 +8°C° 0 mm 7 mps 702 mmHg 77%
    01:00 +8°C° 0 mm 7 mps 702 mmHg 76%
    02:00 +8°C° 0 mm 7 mps 702 mmHg 75%
    03:00 +8°C° 0 mm 7 mps 702 mmHg 75%
    04:00 +8°C° 0 mm 7 mps 702 mmHg 76%
    05:00 +8°C° 0 mm 7 mps 702 mmHg 76%
    06:00 +8°C° 0 mm 7 mps 703 mmHg 75%
    07:00 +8°C° 0 mm 6 mps 703 mmHg 74%
    08:00 +8°C° 0 mm 6 mps 704 mmHg 74%
    09:00 +9°C° 0 mm 6 mps 704 mmHg 69%
    10:00 +10°C° 0 mm 6 mps 705 mmHg 64%
    11:00 +12°C° 0 mm 5 mps 705 mmHg 60%
    12:00 +12°C° 0 mm 5 mps 705 mmHg 59%
    13:00 +13°C° 0 mm 5 mps 705 mmHg 59%
    14:00 +13°C° 0 mm 5 mps 705 mmHg 59%
    15:00 +12°C° 0 mm 5 mps 705 mmHg 61%
    16:00 +12°C° 0 mm 4 mps 705 mmHg 63%
    17:00 +11°C° 0 mm 4 mps 706 mmHg 65%
    18:00 +10°C° 0 mm 3 mps 706 mmHg 69%
    19:00 +10°C° 0 mm 3 mps 706 mmHg 73%
    20:00 +9°C° 0 mm 2 mps 706 mmHg 76%
    21:00 +8°C° 0 mm 3 mps 706 mmHg 78%
    22:00 +8°C° 0 mm 3 mps 706 mmHg 80%
    23:00 +8°C° 0 mm 3 mps 706 mmHg 82%

    28 February, Wednesday

    Time Temperature Precipitation Wind Pressure Humidity
    00:00 +7°C° 0 mm 4 mps 706 mmHg 84%
    01:00 +7°C° 0 mm 5 mps 705 mmHg 86%
    02:00 +7°C° 0 mm 5 mps 705 mmHg 88%
    03:00 +7°C° 0 mm 6 mps 705 mmHg 86%
    04:00 +8°C° 0 mm 6 mps 704 mmHg 85%
    05:00 +8°C° 0 mm 7 mps 704 mmHg 83%
    06:00 +9°C° 0 mm 7 mps 704 mmHg 82%
    07:00 +9°C° 0 mm 7 mps 704 mmHg 82%
    08:00 +10°C° 0 mm 7 mps 704 mmHg 82%
    09:00 +11°C° 0 mm 7 mps 705 mmHg 76%
    10:00 +11°C° 0 mm 6 mps 705 mmHg 71%
    11:00 +13°C° 0 mm 6 mps 705 mmHg 66%
    12:00 +14°C° 0 mm 6 mps 705 mmHg 63%
    13:00 +14°C° 0 mm 6 mps 705 mmHg 61%
    14:00 +14°C° 0 mm 6 mps 705 mmHg 58%
    15:00 +14°C° 0 mm 5 mps 705 mmHg 61%
    16:00 +13°C° 0 mm 4 mps 705 mmHg 63%
    17:00 +13°C° 0 mm 4 mps 704 mmHg 66%
    18:00 +12°C° 0 mm 4 mps 705 mmHg 71%
    19:00 +11°C° 0 mm 4 mps 705 mmHg 76%
    20:00 +9°C° 0 mm 5 mps 706 mmHg 81%
    21:00 +9°C° 0 mm 5 mps 706 mmHg 83%
    22:00 +9°C° 0 mm 5 mps 707 mmHg 84%
    23:00 +9°C° 0 mm 5 mps 707 mmHg 86%

    1 March, Thursday

    Time Temperature Precipitation Wind Pressure Humidity
    00:00 +9°C° 0 mm 5 mps 707 mmHg 81%
    01:00 +8°C° 0 mm 6 mps 707 mmHg 77%
    02:00 +8°C° 0 mm 6 mps 707 mmHg 72%
    03:00 +8°C° 0 mm 5 mps 707 mmHg 71%
    04:00 +7°C° 0 mm 4 mps 708 mmHg 71%
    05:00 +7°C° 0 mm 4 mps 708 mmHg 70%
    06:00 +7°C° 0 mm 4 mps 708 mmHg 73%
    07:00 +9°C° 0 mm 3 mps 708 mmHg 75%
    08:00 +9°C° 0 mm 3 mps 709 mmHg 78%
    09:00 +10°C° 0 mm 3 mps 709 mmHg 72%
    10:00 +11°C° 0 mm 3 mps 709 mmHg 67%
    11:00 +12°C° 0 mm 3 mps 710 mmHg 61%
    12:00 +13°C° 0 mm 3 mps 710 mmHg 59%
    13:00 +13°C° 0 mm 3 mps 710 mmHg 58%
    14:00 +13°C° 0 mm 3 mps 709 mmHg 56%
    15:00 +13°C° 0 mm 3 mps 709 mmHg 58%
    16:00 +13°C° 0 mm 3 mps 709 mmHg 61%
    17:00 +12°C° 0 mm 3 mps 709 mmHg 63%
    18:00 +11°C° 0 mm 3 mps 709 mmHg 68%
    19:00 +11°C° 0 mm 3 mps 710 mmHg 72%
    20:00 +10°C° 0 mm 3 mps 710 mmHg 77%
    21:00 +10°C° 0 mm 3 mps 710 mmHg 76%
    22:00 +10°C° 0 mm 3 mps 710 mmHg 76%
    23:00 +10°C° 0 mm 2 mps 710 mmHg 76%

    2 March, Friday

    Time Temperature Precipitation Wind Pressure Humidity
    00:00 +10°C° 0 mm 2 mps 709 mmHg 78%
    01:00 +9°C° 0 mm 2 mps 709 mmHg 81%
    02:00 +9°C° 0 mm 2 mps 709 mmHg 83%
    03:00 +9°C° 0 mm 2 mps 708 mmHg 85%
    04:00 +8°C° 0 mm 2 mps 708 mmHg 86%
    05:00 +8°C° 0 mm 2 mps 708 mmHg 88%
    06:00 +9°C° 0 mm 2 mps 708 mmHg 86%
    07:00 +9°C° 0 mm 3 mps 708 mmHg 83%
    08:00 +10°C° 0 mm 3 mps 708 mmHg 81%
    09:00 +10°C° 0 mm 3 mps 708 mmHg 77%
    10:00 +11°C° 0 mm 3 mps 707 mmHg 73%
    11:00 +12°C° 0 mm 3 mps 707 mmHg 70%
    12:00 +12°C° 0 mm 3 mps 707 mmHg 69%
    13:00 +12°C° 0 mm 3 mps 707 mmHg 68%
    14:00 +12°C° 0 mm 3 mps 706 mmHg 68%
    15:00 +12°C° 0 mm 3 mps 706 mmHg 70%
    16:00 +12°C° 0 mm 3 mps 706 mmHg 72%
    17:00 +11°C° 0 mm 3 mps 705 mmHg 74%
    18:00 +11°C° 0 mm 4 mps 705 mmHg 77%
    19:00 +10°C° 0 mm 4 mps 705 mmHg 81%
    20:00 +8°C° 0 mm 5 mps 705 mmHg 85%
    21:00 +8°C° 0 mm 5 mps 704 mmHg 85%
    22:00 +8°C° 0 mm 5 mps 704 mmHg 86%
    23:00 +8°C° 0 mm 6 mps 704 mmHg 86%
    Show more